This is the latest recevied weather packets stored in our database for station/object VK6NP-1. If no packets are shown the sender has not sent any weather packets the latest 10 day(s).
| Time | Temp. | Humidity | Pressure | Rain* | Wind** | Luminosity | Snow |
|---|---|---|---|---|---|---|---|
| 1777690645 | 17.22° C | 56% | 1028.8 hPa | 0 mm | 0 m/s | - | - |
| 1777690323 | 17.22° C | 57% | 1028.9 hPa | 0 mm | 0 m/s | - | - |
| 1777690024 | 17.22° C | 56% | 1029 hPa | 0 mm | 0 m/s | - | - |
| 1777689724 | 16.67° C | 58% | 1029 hPa | 0 mm | 0 m/s | - | - |
| 1777689421 | 16.67° C | 59% | 1029.1 hPa | 0 mm | 0 m/s | - | - |
| 1777689119 | 16.11° C | 59% | 1029.1 hPa | 0 mm | 0 m/s | - | - |
| 1777688819 | 16.11° C | 59% | 1029.2 hPa | 0 mm | 0 m/s | - | - |
| 1777688517 | 16.11° C | 59% | 1029.2 hPa | 0 mm | 0 m/s | - | - |
| 1777688217 | 16.11° C | 62% | 1029.3 hPa | 0 mm | 0 m/s | - | - |
| 1777687917 | 16.11° C | 62% | 1029.3 hPa | 0 mm | 0 m/s | - | - |
| 1777687614 | 15.56° C | 64% | 1029.3 hPa | 0 mm | 0 m/s | - | - |
| 1777687314 | 15.56° C | 65% | 1029.4 hPa | 0 mm | 0 m/s | - | - |
| 1777687014 | 15° C | 67% | 1029.4 hPa | 0 mm | 0 m/s | - | - |
| 1777686712 | 15° C | 66% | 1029.4 hPa | 0 mm | 0 m/s | - | - |
| 1777686412 | 14.44° C | 69% | 1029.3 hPa | 0 mm | 0 m/s | - | - |
| 1777686113 | 14.44° C | 68% | 1029.5 hPa | 0 mm | 0 m/s | - | - |
| 1777685806 | 13.89° C | 69% | 1029.5 hPa | 0 mm | 0 m/s | - | - |
| 1777685506 | 13.89° C | 70% | 1029.6 hPa | 0 mm | 0 m/s | - | - |
| 1777685207 | 13.89° C | 69% | 1029.8 hPa | 0 mm | 0 m/s | - | - |
| 1777684903 | 13.89° C | 72% | 1029.7 hPa | 0 mm | 0 m/s | - | - |
| 1777684604 | 13.33° C | 74% | 1029.7 hPa | 0 mm | 0 m/s | - | - |
| 1777684304 | 13.33° C | 74% | 1029.6 hPa | 0 mm | 0 m/s | - | - |
| 1777684002 | 12.78° C | 75% | 1029.6 hPa | 0 mm | 0 m/s | - | - |
| 1777683702 | 12.78° C | 76% | 1029.7 hPa | 0 mm | 0 m/s | - | - |
| 1777683403 | 12.78° C | 78% | 1029.8 hPa | 0 mm | 0 m/s | - | - |
* Rain latest hour (hover to see other rain measurements)
** Current wind speed in m/s (hover to see current wind gust speed)